1505458800.99,27852,15.5,73408.8,5.17,-33.67,-34.19,0,*7A
1505458802.24,27853,15.5,73414.5,5.17,-33.27,-33.83,0,*7B
1505458803.48,27854,15.5,73416.3,5.17,-33.67,-34.19,0,*7C
1505458804.73,27855,15.5,73414.3,5.17,-33.67,-34.19,0,*7D
1505458805.97,27856,15.5,73412.5,5.17,-33.31,-33.95,0,*7E
1505458807.19,27857,15.5,73412.0,5.17,-33.95,-34.41,0,*7F
1505458808.41,27858,15.5,73412.0,5.19,-33.95,-34.53,0,*7D
1505458809.61,27859,15.5,73412.8,5.19,-34.13,-34.71,0,*75
1505458810.84,27860,15.5,73416.3,5.17,-35.13,-35.71,0,*71
1505458812.09,27861,15.5,73414.0,5.15,-34.95,-35.35,0,*7D
1505458813.28,27862,15.5,73410.3,5.15,-33.95,-34.41,0,*7B
1505458814.53,27863,15.56,73406.8,5.17,-33.83,-34.35,0,*7C
1505458815.78,27864,15.5,73400.8,5.17,-33.49,-34.13,0,*79
1505458817.02,27865,15.5,73400.8,5.17,-32.91,-33.49,0,*74
1505458818.29,27866,15.5,73398.0,5.17,-33.09,-33.61,0,*7D
1505458819.5,27867,15.5,73396.3,5.19,-32.69,-33.21,0,*71
1505458820.75,27868,15.5,73396.5,5.21,-31.91,-32.51,0,*77
1505458821.97,27869,15.5,73396.5,5.23,-33.21,-33.73,0,*7C
1505458823.19,27870,15.56,73398.3,5.23,-32.35,-32.85,0,*78
1505458824.45,27871,15.5,73396.5,5.25,-31.51,-31.95,0,*7C
1505458825.7,27872,15.5,73392.8,5.29,-32.75,-33.27,0,*7D
1505458826.92,27873,15.5,73390.3,5.29,-33.15,-33.77,0,*7E
1505458828.12,27874,15.5,73398.5,5.29,-33.15,-33.67,0,*78
1505458829.35,27875,15.5,73400.5,5.29,-32.69,-33.09,0,*7B
1505458830.57,27876,15.5,73404.8,5.31,-31.79,-32.35,0,*7D
1505458831.82,27877,15.5,73404.0,5.33,-31.57,-32.19,0,*7C
1505458833.02,27878,15.5,73404.8,5.33,-31.45,-32.01,0,*79
1505458834.27,27879,15.5,73406.5,5.37,-31.73,-32.29,0,*73
1505458835.52,27880,15.5,73408.0,5.41,-31.51,-32.07,0,*78
1505458836.74,27881,15.5,73408.3,5.41,-32.51,-32.97,0,*73
1505458837.96,27882,15.5,73408.5,5.41,-33.43,-34.07,0,*7D
1505458839.19,27883,15.56,73410.8,5.41,-34.41,-34.95,0,*72
1505458840.38,27884,15.56,73412.0,5.41,-33.83,-34.41,0,*75
1505458841.58,27885,15.56,73412.5,5.37,-32.57,-33.15,0,*7B
1505458842.82,27886,15.5,73412.8,5.41,-33.09,-33.61,0,*70
1505458844.07,27887,15.5,73412.0,5.43,-33.43,-33.95,0,*76
1505458845.31,27888,15.5,73416.5,5.41,-32.97,-33.49,0,*72
1505458846.54,27889,15.5,73416.5,5.41,-32.79,-33.67,0,*7F
1505458847.82,27890,15.5,73414.5,5.43,-34.01,-34.53,0,*7C
1505458849.1,27891,15.56,73418.0,5.43,-34.01,-34.65,0,*78
1505458850.33,27892,15.56,73416.3,5.41,-34.35,-34.77,0,*7D
1505458851.56,27893,15.5,73412.0,5.43,-34.47,-35.01,0,*7B
1505458852.78,27894,15.56,73414.5,5.41,-34.41,-35.07,0,*7E
1505458853.99,27895,15.5,73412.5,5.41,-35.29,-35.89,0,*76
1505458855.24,27896,15.56,73416.5,5.41,-36.49,-37.51,0,*77
1505458856.49,27897,15.56,73416.0,5.37,-36.91,-37.69,0,*79
1505458857.72,27898,15.5,73414.5,5.35,-37.15,-37.87,0,*79
1505458858.95,27899,15.5,73414.8,5.33,-37.87,-38.49,0,*78
1505458860.18,27900,15.5,73414.3,5.31,-37.03,-37.75,0,*77
1505458861.41,27901,15.56,73416.3,5.25,-36.25,-37.03,0,*77
1505458862.61,27902,15.56,73416.0,5.25,-35.13,-35.71,0,*75
1505458863.86,27903,15.5,73414.0,5.23,-34.83,-35.35,0,*7A
1505458865.09,27904,15.5,73414.5,5.29,-34.59,-35.07,0,*71
1505458866.31,27905,15.56,73418.3,5.23,-34.31,-34.89,0,*73
1505458867.51,27906,15.56,73418.3,5.25,-34.07,-34.77,0,*72
1505458868.77,27907,15.56,73416.0,5.25,-34.01,-34.65,0,*76
1505458869.98,27908,15.5,73414.8,5.23,-34.47,-35.01,0,*7E
1505458871.19,27909,15.56,73412.5,5.23,-35.01,-35.77,0,*7D
1505458872.41,27910,15.5,73408.5,5.25,-35.29,-35.89,0,*78
1505458873.63,27911,15.56,73412.3,5.23,-34.01,-34.13,0,*76
1505458874.86,27912,15.5,73412.3,5.25,-33.37,-33.89,0,*75
1505458876.09,27913,15.5,73410.5,5.25,-34.41,-34.95,0,*78
1505458877.32,27914,15.5,73410.8,5.25,-34.65,-35.01,0,*75
1505458878.57,27915,15.5,73408.0,5.25,-33.73,-34.31,0,*76
1505458879.81,27916,15.56,73410.8,5.25,-34.01,-34.47,0,*76
1505458881.01,27917,15.56,73412.0,5.25,-33.15,-33.67,0,*70
1505458882.26,27918,15.5,73408.3,5.25,-33.09,-33.49,0,*7E
1505458883.54,27919,15.56,73410.5,5.31,-32.85,-33.27,0,*77
1505458884.82,27920,15.56,73408.3,5.31,-32.85,-33.27,0,*7D
1505458886.07,27921,15.56,73410.0,5.31,-32.23,-32.75,0,*76
1505458887.35,27922,15.56,73408.8,5.35,-31.85,-32.29,0,*77
1505458888.57,27923,15.56,73408.3,5.35,-32.51,-33.03,0,*75
1505458889.8,27924,15.56,73410.5,5.37,-33.03,-33.73,0,*71
1505458891.02,27925,15.56,73408.8,5.37,-33.31,-34.07,0,*75
1505458892.27,27926,15.56,73412.0,5.41,-32.75,-33.31,0,*74
1505458893.47,27927,15.56,73412.8,5.41,-32.23,-32.91,0,*7D
1505458894.69,27928,15.56,73412.5,5.41,-33.15,-33.77,0,*7F
1505458895.92,27929,15.56,73412.8,5.41,-32.69,-33.27,0,*71
1505458897.14,27930,15.56,73412.8,5.41,-33.31,-34.07,0,*70
1505458898.33,27931,15.56,73414.5,5.41,-33.67,-34.25,0,*72
1505458899.54,27932,15.56,73414.5,5.41,-34.07,-34.77,0,*77
1505458900.77,27933,15.5,73412.8,5.43,-35.77,-36.55,0,*70
1505458902.0,27934,15.5,73412.8,5.41,-37.15,-37.99,0,*72
1505458903.2,27935,15.56,73416.5,5.37,-36.67,-37.57,0,*74
1505458904.43,27936,15.56,73412.8,5.35,-36.31,-37.15,0,*70
1505458905.68,27937,15.56,73414.3,5.35,-37.15,-37.93,0,*78
1505458906.91,27938,15.56,73408.8,5.29,-37.69,-38.55,0,*74
1505458908.11,27939,15.56,73416.3,5.29,-36.55,-37.33,0,*74
1505458909.33,27940,15.56,73414.0,5.29,-36.37,-37.15,0,*7A
1505458910.57,27941,15.56,73416.5,5.23,-36.79,-37.69,0,*70
1505458911.79,27942,15.56,73414.0,5.23,-36.97,-37.69,0,*73
1505458913.04,27943,15.56,73410.8,5.21,-37.33,-38.29,0,*74
1505458914.32,27944,15.56,73410.5,5.17,-36.61,-37.51,0,*70
1505458915.54,27945,15.56,73408.5,5.17,-35.29,-36.07,0,*7C
1505458916.75,27946,15.56,73408.8,5.15,-36.31,-37.03,0,*72
1505458917.94,27947,15.56,73410.0,5.15,-35.59,-36.43,0,*7B
1505458919.19,27948,15.56,73410.3,5.17,-34.19,-34.71,0,*70
1505458920.42,27949,15.56,73406.3,5.19,-33.27,-33.83,0,*7F
1505458921.66,27950,15.56,73402.5,5.21,-32.29,-32.91,0,*71
1505458922.94,27951,15.56,73402.3,5.21,-32.85,-33.43,0,*78
1505458924.18,27952,15.56,73402.0,5.25,-33.49,-34.19,0,*76
1505458925.41,27953,15.56,73396.0,5.25,-32.75,-33.15,0,*72
1505458926.63,27954,15.56,73394.0,5.29,-32.91,-33.49,0,*7A
1505458927.88,27955,15.56,73398.5,5.29,-33.27,-33.77,0,*7A
1505458929.12,27956,15.56,73398.5,5.31,-33.03,-33.61,0,*71
1505458930.34,27957,15.56,73398.0,5.33,-33.43,-34.13,0,*74
1505458931.57,27958,15.56,73406.0,5.31,-34.41,-35.13,0,*7D
1505458932.81,27959,15.56,73402.5,5.31,-33.43,-34.13,0,*78
1505458934.06,27960,15.56,73406.5,5.31,-32.23,-32.85,0,*7C
1505458935.32,27961,15.56,73406.8,5.35,-32.19,-32.69,0,*72
1505458936.58,27962,15.56,73406.5,5.35,-32.01,-32.63,0,*72
1505458937.81,27963,15.56,73406.3,5.41,-32.07,-32.69,0,*7C
1505458939.02,27964,15.56,73410.5,5.41,-32.35,-33.09,0,*7D
1505458940.25,27965,15.56,73408.3,5.41,-34.19,-34.89,0,*7B
1505458941.45,27966,15.56,73412.0,5.41,-35.17,-36.01,0,*75
1505458942.67,27967,15.56,73412.8,5.41,-35.13,-35.83,0,*79
1505458943.93,27968,15.56,73406.8,5.41,-34.65,-35.35,0,*7B
1505458945.12,27969,15.56,73406.0,5.37,-35.59,-36.31,0,*72
1505458946.35,27970,15.56,73408.3,5.37,-36.31,-37.21,0,*77
1505458947.6,27971,15.56,73410.8,5.37,-36.13,-37.09,0,*7C
1505458948.88,27972,15.56,73410.3,5.35,-35.41,-35.95,0,*7E
1505458950.13,27973,15.56,73412.3,5.35,-33.21,-33.89,0,*74
1505458951.37,27974,15.56,73412.8,5.35,-34.71,-35.29,0,*7D
1505458952.6,27975,15.56,73412.5,5.33,-35.07,-36.01,0,*73
1505458953.86,27976,15.56,73416.5,5.35,-35.23,-36.01,0,*70
1505458955.09,27977,15.56,73416.0,5.33,-34.83,-35.59,0,*72
1505458956.34,27978,15.56,73416.3,5.33,-34.53,-35.23,0,*7D
1505458957.54,27979,15.56,73418.8,5.33,-35.17,-36.01,0,*7E
1505458958.76,27980,15.56,73418.5,5.33,-36.19,-37.09,0,*7C
1505458959.98,27981,15.56,73418.8,5.29,-35.35,-36.19,0,*7B
1505458961.18,27982,15.56,73414.8,5.29,-36.43,-37.33,0,*73
1505458962.42,27983,15.56,73410.3,5.25,-35.35,-36.13,0,*7F
1505458963.65,27984,15.56,73410.3,5.29,-34.35,-35.29,0,*7F
1505458964.88,27985,15.56,73412.8,5.25,-37.27,-38.23,0,*75
1505458966.08,27986,15.56,73416.3,5.23,-37.27,-37.87,0,*71
1505458967.31,27987,15.56,73412.3,5.23,-36.49,-37.27,0,*73
1505458968.58,27988,15.56,73412.3,5.21,-37.51,-38.29,0,*77
1505458969.78,27989,15.56,73414.5,5.19,-36.97,-37.75,0,*70
1505458970.98,27990,15.56,73408.3,5.15,-37.57,-38.43,0,*73
1505458972.26,27991,15.56,73406.5,5.17,-37.39,-38.11,0,*7F
1505458973.54,27992,15.56,73398.8,5.13,-37.21,-37.99,0,*7E
1505458974.78,27993,15.56,73398.0,5.13,-37.39,-38.17,0,*7F
1505458976.01,27994,15.56,73396.5,5.11,-36.73,-37.51,0,*78
1505458977.23,27995,15.56,73404.0,5.09,-36.43,-37.33,0,*77
1505458978.46,27996,15.56,73404.8,5.07,-36.73,-37.69,0,*76
1505458979.66,27997,15.56,73416.5,5.07,-37.03,-37.75,0,*7C
1505458980.89,27998,15.56,73408.3,5.07,-37.21,-38.05,0,*7B
1505458982.13,27999,15.56,73410.5,5.01,-38.43,-39.53,0,*75
1505458983.38,28000,15.56,73404.8,5.01,-37.63,-38.55,0,*79
1505458984.59,28001,15.56,73408.3,4.99,-37.27,-38.17,0,*7E
1505458985.84,28002,15.56,73408.5,4.97,-36.73,-37.69,0,*75
1505458987.09,28003,15.56,73406.0,4.97,-36.43,-37.21,0,*7B
1505458988.34,28004,15.56,73404.5,4.97,-36.79,-37.75,0,*74
1505458989.56,28005,15.56,73386.5,4.93,-38.43,-39.47,0,*79
1505458990.85,28006,15.56,73386.0,4.93,-39.15,-40.29,0,*7E
1505458992.09,28007,15.56,73396.3,4.89,-38.49,-39.41,0,*7C
1505458993.32,28008,15.56,73398.0,4.87,-39.09,-40.03,0,*70
1505458994.53,28009,15.56,73402.8,4.85,-38.85,-39.65,0,*78
1505458995.78,28010,15.56,73400.8,4.79,-37.99,-38.97,0,*7D
1505458997.03,28011,15.56,73408.3,4.79,-37.57,-38.49,0,*7D
1505458998.26,28012,15.56,73400.5,4.77,-38.55,-39.59,0,*7D
1505458999.54,28013,15.56,73406.3,4.75,-37.51,-38.49,0,*75
1505459000.76,28014,15.56,73404.8,4.75,-35.47,-36.43,0,*73
1505459001.99,28015,15.56,73404.8,4.77,-37.69,-38.85,0,*7A
1505459003.24,28016,15.56,73408.5,4.75,-38.05,-39.23,0,*73
1505459004.47,28017,15.56,73392.0,4.73,-38.61,-39.79,0,*79
1505459005.71,28018,15.56,73396.3,4.73,-38.11,-38.91,0,*76
1505459006.93,28019,15.56,73400.5,4.69,-38.43,-39.41,0,*77
1505459008.2,28020,15.56,73396.3,4.67,-38.23,-39.15,0,*74
1505459009.41,28021,15.56,73396.0,4.65,-36.97,-37.87,0,*73
1505459010.63,28022,15.56,73392.8,4.65,-38.05,-38.91,0,*7D
1505459011.85,28023,15.56,73394.5,4.65,-37.15,-38.11,0,*7A
1505459013.08,28024,15.56,73396.5,4.63,-37.75,-38.85,0,*70
1505459014.33,28025,15.56,73402.3,4.63,-36.55,-37.51,0,*74
1505459015.59,28026,15.56,73400.5,4.63,-36.97,-37.93,0,*77
1505459016.84,28027,15.56,73394.5,4.63,-37.63,-38.43,0,*7E
1505459018.07,28028,15.56,73398.8,4.61,-37.03,-37.93,0,*77
1505459019.29,28029,15.56,73402.3,4.57,-36.61,-37.57,0,*7E
1505459020.53,28030,15.56,73404.5,4.61,-36.25,-37.15,0,*75
1505459021.76,28031,15.56,73406.5,4.57,-36.85,-37.81,0,*76
1505459022.95,28032,15.56,73406.0,4.57,-36.19,-36.97,0,*76
1505459024.2,28033,15.56,73400.3,4.57,-36.49,-37.51,0,*79
1505459025.45,28034,15.56,73392.3,4.57,-36.79,-37.81,0,*70
1505459026.68,28035,15.56,73398.0,4.57,-37.03,-37.81,0,*7D
1505459027.91,28036,15.56,73402.8,4.55,-35.89,-36.55,0,*74
1505459029.11,28037,15.56,73410.0,4.57,-34.89,-35.47,0,*76
1505459030.34,28038,15.56,73414.8,4.57,-34.59,-35.35,0,*71
1505459031.59,28039,15.56,73410.5,4.61,-35.35,-36.37,0,*7F
1505459032.81,28040,15.56,73410.3,4.57,-36.37,-37.33,0,*70
1505459034.01,28041,15.56,73410.3,4.61,-36.01,-36.97,0,*7E
1505459035.25,28042,15.56,73408.5,4.57,-36.97,-37.81,0,*71
1505459036.48,28043,15.56,73412.5,4.57,-34.95,-35.47,0,*78
1505459037.7,28044,15.56,73414.0,4.57,-34.01,-34.77,0,*70
1505459038.95,28045,15.56,73408.8,4.63,-34.89,-35.65,0,*74
1505459040.23,28046,15.56,73418.0,4.63,-34.31,-35.07,0,*70
1505459041.43,28047,15.56,73416.3,4.65,-34.07,-34.89,0,*75
1505459042.63,28048,15.56,73422.0,4.65,-33.95,-34.71,0,*71
1505459043.85,28049,15.56,73424.3,4.67,-35.59,-36.31,0,*72
1505459045.1,28050,15.56,73426.3,4.67,-35.71,-36.37,0,*76
1505459046.3,28051,15.56,73416.0,4.69,-35.13,-36.01,0,*78
1505459047.52,28052,15.56,73412.0,4.69,-35.53,-36.31,0,*7C
1505459048.78,28053,15.56,73406.8,4.67,-36.55,-37.39,0,*7F
1505459050.03,28054,15.56,73410.0,4.67,-34.13,-34.83,0,*7A
1505459051.23,28055,15.56,73408.3,4.69,-33.37,-34.07,0,*78
1505459052.45,28056,15.56,73412.0,4.69,-33.95,-34.53,0,*72
1505459053.69,28057,15.56,73406.5,4.73,-35.01,-35.83,0,*7F
1505459054.91,28058,15.56,73400.5,4.73,-34.89,-35.65,0,*79
1505459056.12,28059,15.56,73400.8,4.73,-35.77,-36.55,0,*78
1505459057.34,28060,15.56,73410.5,4.73,-33.61,-34.47,0,*72
1505459058.57,28061,15.63,73416.3,4.73,-34.31,-35.13,0,*71
1505459059.8,28062,15.56,73414.3,4.73,-34.31,-35.01,0,*71
1505459061.03,28063,15.56,73418.3,4.73,-34.35,-35.13,0,*77
1505459062.31,28064,15.56,73418.3,4.75,-35.07,-35.83,0,*7F
1505459063.59,28065,15.56,73412.8,4.75,-35.95,-37.39,0,*76
1505459064.82,28066,15.56,73410.5,4.73,-37.27,-38.23,0,*7C
1505459066.05,28067,15.56,73410.8,4.73,-35.77,-36.61,0,*72
1505459067.3,28068,15.56,73408.5,4.73,-33.89,-34.53,0,*79
1505459068.52,28069,15.56,73410.0,4.73,-33.21,-33.89,0,*7A
1505459069.79,28070,15.56,73412.3,4.75,-36.61,-37.69,0,*7F
1505459071.05,28071,15.56,73416.5,4.75,-36.25,-37.57,0,*73
1505459072.24,28072,15.56,73408.3,4.73,-38.73,-39.85,0,*7A
1505459073.47,28073,15.63,73404.8,4.73,-36.61,-37.57,0,*77
1505459074.7,28074,15.56,73402.8,4.69,-37.21,-38.17,0,*75
1505459075.93,28075,15.56,73402.0,4.67,-37.57,-38.35,0,*7B
1505459077.19,28076,15.56,73388.3,4.65,-39.59,-40.59,0,*7F
1505459078.46,28077,15.56,73372.5,4.63,-38.29,-39.29,0,*77
1505459079.66,28078,15.56,73376.5,4.57,-38.35,-39.65,0,*7A
1505459080.91,28079,15.56,73388.3,4.53,-40.21,-41.55,0,*79
1505459082.11,28080,15.56,73386.5,4.49,-41.03,-42.13,0,*74
1505459083.32,28081,15.56,73386.8,4.45,-42.13,-43.41,0,*7D
1505459084.54,28082,15.63,73386.0,4.43,-40.73,-41.73,0,*7F
1505459085.79,28083,15.56,73392.0,4.43,-38.61,-39.79,0,*77
1505459087.03,28084,15.56,73388.3,4.39,-38.49,-39.47,0,*7A
1505459088.28,28085,15.56,73402.5,4.35,-38.05,-38.91,0,*75
1505459089.51,28086,15.56,73394.8,4.35,-35.89,-36.73,0,*7D
1505459090.75,28087,15.56,73402.8,4.35,-37.03,-37.93,0,*73
1505459092.03,28088,15.56,73414.3,4.35,-36.25,-37.21,0,*70
1505459093.28,28089,15.56,73414.8,4.39,-37.33,-38.29,0,*7C
1505459094.53,28090,15.56,73420.8,4.35,-36.37,-37.33,0,*79
1505459095.75,28091,15.56,73408.3,4.35,-35.29,-36.07,0,*72
1505459096.99,28092,15.56,73404.8,4.35,-34.59,-35.29,0,*78
1505459098.22,28093,15.63,73408.5,4.39,-35.13,-35.89,0,*70
1505459099.47,28094,15.56,73404.5,4.43,-35.13,-35.95,0,*77
1505459100.7,28095,15.63,73406.0,4.41,-35.95,-36.73,0,*71
1505459101.91,28096,15.56,73402.5,4.41,-35.77,-36.67,0,*7B
1505459103.15,28097,15.56,73402.0,4.41,-35.35,-36.13,0,*7F
1505459104.43,28098,15.56,73400.0,4.43,-36.49,-37.39,0,*73
1505459105.65,28099,15.56,73400.0,4.43,-36.07,-36.73,0,*77
1505459106.88,28100,15.56,73406.0,4.41,-36.73,-37.51,0,*76
1505459108.12,28101,15.56,73402.0,4.41,-35.83,-36.55,0,*7E
1505459109.34,28102,15.56,73404.5,4.41,-35.77,-36.37,0,*72
1505459110.54,28103,15.56,73400.3,4.45,-34.41,-35.29,0,*7F
1505459111.77,28104,15.63,73402.5,4.45,-34.35,-35.13,0,*72
1505459113.01,28105,15.56,73404.8,4.45,-34.77,-35.53,0,*71
1505459114.21,28106,15.56,73404.3,4.45,-34.47,-35.17,0,*71
1505459115.49,28107,15.56,73408.5,4.47,-34.19,-35.07,0,*78
1505459116.74,28108,15.63,73408.3,4.47,-33.31,-34.13,0,*7E
1505459117.96,28109,15.63,73408.0,4.49,-33.03,-33.89,0,*74
1505459119.23,28110,15.56,73406.3,4.51,-32.97,-33.77,0,*78
1505459120.49,28111,15.63,73406.3,4.53,-33.09,-33.77,0,*7D
1505459121.71,28112,15.56,73404.3,4.55,-33.03,-33.83,0,*79
1505459122.95,28113,15.63,73406.3,4.57,-32.97,-33.77,0,*7D
1505459124.17,28114,15.63,73408.8,4.61,-33.61,-34.41,0,*75
1505459125.37,28115,15.63,73412.0,4.61,-35.13,-36.07,0,*77
1505459126.62,28116,15.63,73412.0,4.63,-33.95,-34.65,0,*78
1505459127.87,28117,15.56,73408.3,4.63,-33.09,-33.95,0,*74
1505459129.12,28118,15.56,73406.8,4.65,-33.43,-34.83,0,*73
1505459130.34,28119,15.63,73404.8,4.67,-36.07,-36.85,0,*71
1505459131.55,28120,15.63,73404.3,4.65,-33.55,-34.31,0,*76
1505459132.81,28121,15.56,73406.8,4.67,-32.85,-33.55,0,*7C
1505459134.05,28122,15.56,73406.0,4.69,-33.27,-34.01,0,*7E
1505459135.28,28123,15.63,73408.3,4.69,-33.43,-34.07,0,*7B
1505459136.53,28124,15.63,73414.5,4.73,-33.43,-34.01,0,*71
1505459137.78,28125,15.56,73410.0,4.73,-32.63,-33.27,0,*70
1505459139.02,28126,15.56,73414.5,4.73,-33.61,-34.31,0,*70
1505459140.3,28127,15.56,73412.5,4.75,-35.95,-36.91,0,*72
1505459141.55,28128,15.63,73408.0,4.75,-36.61,-37.75,0,*7E
1505459142.77,28129,15.63,73410.3,4.73,-36.79,-37.75,0,*70
1505459144.0,28130,15.63,73408.5,4.73,-38.43,-39.59,0,*7F
1505459145.28,28131,15.56,73414.3,4.67,-37.63,-38.79,0,*75
1505459146.52,28132,15.56,73416.5,4.63,-38.43,-39.41,0,*75
1505459147.76,28133,15.63,73414.5,4.61,-39.79,-41.11,0,*74
1505459149.02,28134,15.63,73418.8,4.57,-39.15,-40.29,0,*76
1505459150.25,28135,15.63,73418.5,4.53,-36.67,-37.63,0,*77
1505459151.46,28136,15.63,73416.0,4.53,-36.31,-37.15,0,*76
1505459152.71,28137,15.56,73412.0,4.51,-37.81,-38.97,0,*7A
1505459153.98,28138,15.63,73410.3,4.51,-38.11,-39.03,0,*7F
1505459155.2,28139,15.56,73410.5,4.49,-38.91,-40.03,0,*71
1505459156.43,28140,15.63,73408.0,4.45,-39.09,-40.29,0,*7B
1505459157.68,28141,15.63,73406.8,4.45,-37.63,-38.79,0,*72
1505459158.91,28142,15.63,73410.5,4.41,-39.15,-40.15,0,*7F
1505459160.15,28143,15.63,73408.3,4.39,-35.59,-36.79,0,*7E
1505459161.4,28144,15.63,73410.3,4.39,-33.83,-34.53,0,*72
1505459162.62,28145,15.63,73414.3,4.41,-32.97,-33.95,0,*75
1505459163.83,28146,15.63,73410.3,4.45,-34.07,-34.77,0,*76
1505459165.08,28147,15.63,73404.3,4.47,-34.01,-34.89,0,*72
1505459166.31,28148,15.63,73396.8,4.49,-33.09,-33.83,0,*71
1505459167.55,28149,15.63,73396.8,4.51,-33.95,-34.83,0,*7B
1505459168.8,28150,15.63,73400.0,4.49,-33.49,-34.31,0,*72
1505459170.07,28151,15.63,73396.5,4.51,-33.09,-33.89,0,*7A
1505459171.29,28152,15.63,73400.3,4.53,-33.27,-34.07,0,*76
1505459172.56,28153,15.63,73400.3,4.55,-33.31,-34.19,0,*79
1505459173.76,28154,15.63,73402.3,4.61,-32.91,-33.83,0,*76
1505459175.02,28155,15.63,73408.5,4.61,-34.01,-34.95,0,*78
1505459176.22,28156,15.63,73410.5,4.61,-34.25,-35.13,0,*72
1505459177.45,28157,15.56,73406.0,4.65,-34.19,-35.01,0,*7B
1505459178.67,28158,15.63,73406.0,4.65,-33.95,-34.83,0,*7C
1505459179.89,28159,15.63,73406.3,4.65,-34.83,-35.59,0,*7B
1505459181.1,28160,15.56,73394.8,4.65,-35.01,-35.77,0,*76
1505459182.36,28161,15.63,73392.5,4.63,-34.83,-35.59,0,*76
1505459183.64,28162,15.63,73396.3,4.63,-34.65,-35.41,0,*74
1505459184.88,28163,15.63,73396.5,4.63,-34.47,-35.17,0,*76
1505459186.09,28164,15.63,73404.3,4.65,-34.47,-35.29,0,*7A
1505459187.34,28165,15.63,73400.8,4.65,-34.53,-35.23,0,*74
1505459188.61,28166,15.63,73402.5,4.67,-35.35,-36.25,0,*71
1505459189.84,28167,15.56,73406.0,4.67,-35.71,-36.73,0,*73
1505459191.07,28168,15.56,73406.5,4.63,-35.29,-36.19,0,*79
1505459192.29,28169,15.63,73408.0,4.65,-35.83,-36.97,0,*78
1505459193.54,28170,15.63,73404.0,4.63,-36.13,-36.97,0,*7C
1505459194.79,28171,15.63,73408.5,4.63,-35.77,-36.61,0,*75
1505459196.04,28172,15.63,73406.8,4.63,-35.95,-36.97,0,*73
1505459197.29,28173,15.63,73414.8,4.63,-36.13,-37.27,0,*75
1505459198.51,28174,15.63,73408.8,4.61,-35.53,-36.43,0,*74
1505459199.77,28175,15.63,73410.5,4.57,-35.07,-35.83,0,*7E
1505459201.0,28176,15.63,73410.3,4.61,-35.29,-36.25,0,*7B
1505459202.2,28177,15.63,73410.8,4.61,-36.07,-37.03,0,*70
1505459203.43,28178,15.63,73412.0,4.61,-35.71,-36.79,0,*71
1505459204.65,28179,15.63,73414.8,4.57,-35.89,-36.79,0,*72
1505459205.91,28180,15.63,73414.3,4.63,-35.01,-35.65,0,*7D
1505459207.11,28181,15.63,73412.0,4.61,-35.47,-36.19,0,*74
1505459208.34,28182,15.63,73412.3,4.57,-35.83,-36.67,0,*73
1505459209.54,28183,15.63,73406.0,4.57,-36.85,-37.75,0,*75
1505459210.82,28184,15.63,73402.5,4.55,-36.25,-37.09,0,*71
1505459212.07,28185,15.63,73406.8,4.55,-35.17,-35.95,0,*75
1505459213.29,28186,15.63,73400.8,4.55,-33.67,-34.41,0,*7F
1505459214.52,28187,15.63,73392.8,4.57,-34.01,-34.89,0,*7F
1505459215.76,28188,15.63,73394.5,4.57,-35.07,-35.89,0,*76
1505459216.98,28189,15.63,73396.8,4.57,-35.65,-36.43,0,*76
1505459218.18,28190,15.63,73400.0,4.57,-34.13,-34.77,0,*7B
1505459219.41,28191,15.63,73406.5,4.61,-32.69,-33.61,0,*74
1505459220.66,28192,15.63,73410.5,4.65,-33.73,-34.53,0,*7F
1505459221.92,28193,15.63,73410.8,4.63,-34.47,-35.23,0,*7E
1505459223.17,28194,15.63,73410.8,4.67,-32.85,-33.67,0,*73
1505459224.43,28195,15.63,73402.3,4.69,-32.07,-32.79,0,*78
1505459225.68,28196,15.63,73398.8,4.69,-32.97,-33.77,0,*7D
1505459226.93,28197,15.63,73394.0,4.73,-33.09,-33.77,0,*71
1505459228.15,28198,15.63,73394.8,4.73,-32.85,-33.55,0,*7B
1505459229.37,28199,15.63,73392.5,4.75,-32.35,-33.03,0,*74
1505459230.62,28200,15.63,73386.8,4.77,-33.49,-33.89,0,*7D
1505459231.87,28201,15.63,73388.0,4.79,-33.27,-34.25,0,*7B
1505459233.09,28202,15.63,73394.5,4.79,-34.41,-35.17,0,*7F
1505459234.34,28203,15.63,73390.8,4.79,-33.77,-34.71,0,*7D
1505459235.56,28204,15.63,73398.0,4.79,-33.67,-34.41,0,*78
1505459236.8,28205,15.63,73404.3,4.81,-34.59,-35.53,0,*76
1505459238.04,28206,15.63,73400.3,4.79,-33.49,-34.25,0,*74
1505459239.32,28207,15.63,73398.3,4.79,-33.09,-33.89,0,*70
1505459240.55,28208,15.63,73398.0,4.81,-32.51,-33.31,0,*77
1505459241.8,28209,15.63,73400.8,4.85,-32.75,-33.73,0,*72
1505459243.08,28210,15.63,73402.8,4.87,-32.45,-33.27,0,*7A
1505459244.27,28211,15.63,73406.3,4.89,-32.39,-33.21,0,*78
1505459245.49,28212,15.63,73404.8,4.91,-32.35,-33.15,0,*79
1505459246.71,28213,15.63,73402.8,4.91,-32.39,-33.15,0,*74
1505459247.93,28214,15.63,73410.8,4.93,-32.35,-33.15,0,*7D
1505459249.18,28215,15.63,73408.3,4.95,-32.29,-33.09,0,*7A
1505459250.44,28216,15.63,73408.3,4.97,-34.53,-35.59,0,*73
1505459251.72,28217,15.63,73410.5,4.97,-34.53,-35.23,0,*7F
1505459252.92,28218,15.63,73412.3,4.95,-33.55,-34.47,0,*70
1505459254.13,28219,15.63,73410.5,4.95,-34.13,-34.89,0,*76
1505459255.37,28220,15.63,73408.5,4.95,-35.41,-36.37,0,*7D
1505459256.63,28221,15.63,73400.5,4.95,-37.39,-38.49,0,*76
1505459257.88,28222,15.63,73400.5,4.91,-37.63,-38.61,0,*74
1505459259.07,28223,15.63,73398.0,4.89,-37.45,-38.35,0,*79
1505459260.33,28224,15.63,73398.3,4.87,-35.83,-36.73,0,*74
1505459261.59,28225,15.63,73392.3,4.85,-35.07,-35.95,0,*70
1505459262.84,28226,15.63,73386.8,4.85,-34.19,-35.07,0,*76
1505459264.09,28227,15.63,73388.0,4.87,-33.95,-34.65,0,*73
1505459265.37,28228,15.63,73390.5,4.87,-34.31,-35.07,0,*70
1505459266.63,28229,15.63,73390.8,4.87,-34.01,-34.71,0,*72
1505459267.86,28230,15.63,73392.0,4.89,-34.47,-35.35,0,*77
1505459269.08,28231,15.63,73398.3,4.89,-34.31,-35.17,0,*77
1505459270.33,28232,15.63,73392.5,4.87,-34.95,-35.59,0,*7E
1505459271.57,28233,15.63,73392.8,4.87,-34.89,-35.77,0,*7E
1505459272.84,28234,15.63,73402.8,4.87,-35.83,-36.61,0,*76
1505459274.06,28235,15.63,73402.3,4.85,-36.01,-36.91,0,*73
1505459275.32,28236,15.63,73404.3,4.85,-35.95,-36.91,0,*7E
1505459276.54,28237,15.63,73408.0,4.85,-35.83,-36.73,0,*74
1505459277.77,28238,15.63,73408.0,4.85,-35.65,-36.55,0,*77
1505459279.0,28239,15.63,73400.5,4.79,-36.85,-37.75,0,*7B
1505459280.25,28240,15.63,73406.3,4.79,-36.13,-37.03,0,*7B
1505459281.48,28241,15.63,73408.8,4.79,-36.85,-37.75,0,*74
1505459282.73,28242,15.63,73410.3,4.77,-36.91,-37.81,0,*77
1505459283.98,28243,15.63,73406.0,4.77,-36.13,-37.21,0,*76
1505459285.21,28244,15.63,73414.8,4.77,-36.91,-38.05,0,*72
1505459286.41,28245,15.63,73418.5,4.73,-35.13,-36.01,0,*74
1505459287.67,28246,15.63,73420.0,4.75,-35.77,-36.61,0,*75
1505459288.93,28247,15.63,73416.5,4.75,-35.07,-35.77,0,*77
1505459290.19,28248,15.63,73424.5,4.75,-37.27,-38.29,0,*7E
1505459291.4,28249,15.63,73424.5,4.73,-38.43,-39.41,0,*7B
1505459292.65,28250,15.63,73420.5,4.73,-35.83,-36.79,0,*76
1505459293.93,28251,15.63,73422.8,4.67,-36.37,-37.21,0,*72
1505459295.2,28252,15.63,73418.3,4.67,-35.35,-36.13,0,*70
1505459296.44,28253,15.63,73420.3,4.67,-34.59,-35.59,0,*77
1505459297.72,28254,15.63,73416.8,4.67,-37.09,-37.99,0,*78
1505459298.94,28255,15.63,73412.5,4.67,-35.77,-36.85,0,*7E
1505459300.19,28256,15.63,73404.0,4.65,-35.23,-36.13,0,*71
1505459301.43,28257,15.63,73386.5,4.65,-33.61,-34.35,0,*76
1505459302.68,28258,15.63,73384.8,4.65,-32.85,-33.77,0,*73
1505459303.9,28259,15.63,73388.5,4.69,-32.39,-33.09,0,*70